Location: Unspecified
(52.4292°N, 19.3359°E)
Time: 15:43:49
(UTC+01:00)

A-11 Canister half - Pass Details

Date: 13 October 2025
Orbit: 1526 x 1682 km, 47.3° (Epoch: 13 November)

Event Time Altitude Azimuth Distance (km) Brightness Sun altitude
Exits shadow 02:02:33 14° 119° (ESE) 3,357 10.7 -41.4°
Drops below altitude 10° 02:05:54 10° 97° (E) 3,694 11.2 -41.2°
Sets 02:10:45 0° 76° (ENE) 4,684 12.1 -40.8°
